Location: De Lemmer
(52.8462°N, 5.7091°E)
Time: 11:47:50
(UTC+00:00)

Cosmos 1092 Rocket - Pass Details

Date: 18 September 2020
Orbit: 955 x 994 km, 82.9° (Epoch: 30 October)

Event Time Altitude Azimuth Distance (km) Brightness Sun altitude
Rises 19:47:15 0° 349° (N) 3,647 7.6 -18.5°
Reaches altitude 10° 19:49:45 10° 350° (N) 2,698 6.8 -18.9°
Maximum altitude 19:55:57 88° 80° (E) 967 3.9 -19.7°
Enters shadow 20:00:15 21° 171° (S) 2,008 5.3 -20.2°
